CAPE
0 0 0 0 0 0 0 0 0 0 0 0 0 0 0 0 0 0 0 0 0 0 18 2 0 7 19 0 0 0 0 0 0 44 39 19 46 32
0 0 0 0 0 0 0 0 0 0 0 0 0 0 0 2 0 0 0 0 0 0 1 0 0 0 0 0 0 0 0 0 0 0 2 33 27 19
0 0 0 0 0 0 0 0 0 0 0 0 0 0 0 0 0 0 0 0 0 0 0 0 0 0 0 0 0 0 0 0 0 0 0 2 20 58
0 0 0 0 0 0 0 0 0 0 0 0 1 2 1 12 6 0 0 0 0 0 0 0 0 0 0 0 0 0 0 0 0 0 0 0 1 54
0 0 0 0 0 0 0 0 0 0 0 0 0 0 0 0 0 0 0 0 0 0 0 0 0 0 0 0 0 0 0 0 0 0 0 0 0 0
0 0 0 0 0 0 0 0 0 0 0 0 0 0 0 0 0 0 0 0 0 0 0 0 0 0 0 0 0 0 0 0 0 0 0 0 0 0
0 0 0 0 0 0 0 0 0 0 0 0 0 0 0 0 0 0 0 0 0 0 0 0 0 0 0 0 0 0 0 0 0 0 0 0 0 0
0 0 0 0 0 0 0 0 0 0 0 0 0 0 0 0 0 0 0 0 0 0 0 0 0 0 0 0 0 0 0 0 0 0 0 0 0 0
0 0 0 0 0 0 0 0 0 0 1 0 1 0 0 0 1 6 2 0 0 6 17 4 0 0 0 0 0 0 0 0 0 0 0 0 0 0
0 0 0 0 0 0 0 0 1 1 0 0 0 0 0 0 0 0 0 0 0 0 8 8 0 0 0 0 0 0 0 0 0 0 0 0 0 0
0 0 0 0 0 4 1 0 0 0 1 4 4 0 0 0 0 0 0 1 0 0 0 0 0 0 0 0 0 0 0 0 0 0 0 0 0 0
0 0 0 0 2 3 1 0 0 0 0 0 0 0 0 0 1 5 4 1 0 0 0 0 0 0 2 0 0 0 0 0 0 0 0 0 1 1
0 0 0 1 4 3 4 1 0 0 0 1 0 1 0 0 0 0 0 3 8 1 0 0 0 0 0 0 0 0 0 0 0 0 0 0 0 1
0 0 0 2 3 1 1 0 1 0 0 0 0 0 0 0 0 0 0 0 0 0 0 0 0 0 0 0 0 0 0 0 0 0 0 0 0 0
0 0 0 0 0 0 0 1 0 0 0 0 0 0 0 0 0 0 0 0 0 0 0 0 0 0 0 0 0 0 0 0 0 0 0 0 0 1
0 0 0 0 0 0 0 0 0 0 0 0 0 0 0 0 0 0 0 0 0 0 0 0 0 0 0 0 0 0 0 0 0 0 0 0 0 0
0 0 0 0 0 0 0 0 0 0 0 1 0 0 0 0 0 0 0 0 0 0 0 0 0 0 0 0 0 0 0 0 0 0 0 0 0 0
0 0 0 0 0 0 0 0 0 0 0 0 0 0 0 0 0 0 0 1 1 0 0 0 0 0 0 0 0 0 0 0 1 0 0 0 0 0
0 0 0 0 0 0 0 0 0 0 0 0 0 0 0 0 0 0 0 0 0 0 0 0 0 0 0 0 0 1 0 0 0 0 0 0 0 0
0 0 0 0 0 0 0 0 0 0 0 0 0 0 0 0 0 0 0 0 0 0 0 0 0 0 0 0 0 0 0 0 0 0 0 0 0 0
0 0 0 0 0 0 0 0 0 0 0 0 0 0 0 0 0 0 0 0 0 0 0 0 0 0 0 0 0 0 0 0 0 0 0 0 0 0
0 0 0 0 0 0 0 0 0 0 0 0 0 0 0 0 0 0 0 0 0 0 0 0 0 0 0 0 0 0 0 0 0 0 1 0 0 0
0 0 0 0 0 0 0 0 0 0 0 0 0 0 0 0 0 0 0 0 0 0 0 0 0 0 0 0 0 0 0 0 0 0 0 1 0 0
CIN
0 0 0 0 0 0 0 0 0 0 0 0 0 0 0 0 0 0 0 0 -3 0 -21 -29 -4 -15 -30 0 0 0 0 0 0 0 0 -6 -5 -3
0 0 0 0 0 0 0 0 0 0 0 0 0 0 0 -3 0 0 0 0 0 0 -10 0 0 0 0 0 0 0 0 0 0 0 -5 -6 -5 -11
0 0 0 0 0 0 0 0 0 0 0 0 0 0 0 0 0 0 0 0 0 0 0 0 0 0 0 0 0 0 0 0 0 0 0 0 -1 0
0 0 0 0 0 0 0 0 0 0 0 0 -19 -13 -7 -4 -6 0 0 0 0 0 0 0 0 0 0 0 0 0 0 0 0 0 0 0 0 -2
0 0 0 0 0 0 0 0 0 0 0 0 0 0 0 0 0 0 0 0 0 0 0 0 0 0 0 0 0 0 0 0 0 0 0 0 0 0
0 0 0 0 0 0 0 0 0 0 0 0 0 0 0 0 0 0 0 0 0 0 0 0 0 0 0 0 0 0 0 0 0 0 0 0 0 0
0 0 0 0 0 0 0 0 0 0 0 0 0 0 0 -1 0 0 0 0 0 0 0 0 0 0 0 0 0 0 0 0 0 0 0 0 0 0
0 0 0 0 0 0 0 0 0 0 -1 0 0 0 0 0 0 0 0 0 0 0 0 0 0 0 0 0 0 0 0 0 0 0 0 0 0 0
0 0 0 0 0 0 0 0 0 0 0 -1 0 0 0 0 -2 -1 -4 -2 0 -4 -8 -5 0 0 0 0 0 0 0 0 0 0 0 0 0 0
0 0 0 0 -1 -1 0 0 -2 -1 0 0 0 0 0 0 0 0 0 0 0 0 -3 0 0 0 0 0 0 0 0 0 0 0 0 0 0 0
0 0 0 0 0 0 -1 0 0 0 -2 0 0 0 0 0 0 0 -3 -1 0 0 0 0 0 0 0 0 0 0 0 0 0 0 0 0 0 0
0 0 0 0 0 -1 -1 0 0 0 0 0 0 0 0 0 -1 0 -1 -1 0 0 0 0 0 0 0 0 0 0 0 0 0 0 0 0 0 0
0 0 0 0 -1 0 0 -1 0 0 0 -1 0 -1 0 0 0 0 0 0 -4 -3 0 0 0 0 0 0 0 0 0 0 0 0 0 0 0 0
0 0 0 -1 -1 -1 0 0 0 0 0 0 0 0 0 0 0 0 0 0 0 0 0 0 0 0 0 0 0 0 0 0 0 0 0 0 0 0
0 0 0 0 0 0 0 0 0 0 0 0 0 0 0 0 0 0 0 0 0 0 0 0 0 0 0 0 0 0 0 0 0 0 0 0 0 0
0 0 0 0 0 0 0 0 0 0 0 0 0 0 0 0 0 0 0 0 0 0 -8 0 0 0 0 0 0 0 0 0 0 0 0 0 0 0
0 0 0 0 0 0 0 0 0 0 0 0 0 0 0 0 0 0 0 0 0 0 0 0 0 0 0 0 0 0 0 0 0 0 0 0 0 0
0 0 0 0 0 0 0 0 0 0 0 0 0 0 0 0 0 0 0 0 0 0 0 0 0 0 0 0 0 0 0 0 0 0 0 0 0 0
0 0 0 0 0 0 0 0 0 0 0 0 0 0 0 0 0 0 0 0 0 0 0 0 0 0 0 0 0 0 0 0 0 0 0 0 0 0
0 0 0 0 0 0 0 0 0 0 0 0 0 0 0 0 0 0 0 0 0 0 0 0 0 0 0 0 0 0 0 0 0 0 0 0 0 0
0 0 0 0 0 0 0 0 0 0 0 0 0 0 0 0 0 0 0 0 0 0 0 0 0 0 0 0 0 0 0 0 0 0 0 0 0 0
0 0 0 0 0 0 0 0 0 0 0 0 0 0 0 0 0 0 0 0 0 0 0 0 0 0 0 0 0 0 0 0 0 0 0 0 0 0
0 0 0 0 0 0 0 0 0 0 0 0 0 0 0 0 0 0 0 0 0 0 0 0 0 0 0 0 0 0 0 0 0 0 0 0 0 0
Wind_Speed
35 37 37 38 37 38 38 38 42 54 53 45 45 40 41 41 40 39 37 37 37 35 37 33 31 32 33 33 33 36 37 37 34 38 40 35 38 40
37 39 40 40 40 39 39 39 38 44 56 44 43 40 38 37 36 38 39 38 38 38 37 37 36 36 37 34 33 36 37 37 38 38 41 34 36 36
40 42 43 42 42 41 40 40 41 41 49 48 44 41 40 41 41 39 38 38 38 38 40 41 42 42 40 36 35 36 37 37 38 39 41 45 41 38
41 40 41 41 41 40 40 41 41 41 44 50 43 43 42 39 39 42 41 40 40 41 42 44 44 44 43 41 39 39 39 39 38 40 39 43 41 41
38 39 39 39 40 39 39 40 40 41 42 46 48 42 44 43 45 44 43 43 44 44 46 46 47 46 45 45 42 41 41 41 41 40 40 44 44 44
36 37 38 39 41 42 42 42 43 45 45 47 49 48 47 46 47 49 51 46 48 46 46 47 48 48 46 45 43 40 40 40 40 41 43 43 43 45
39 39 39 39 41 41 42 42 41 44 45 48 51 51 50 48 49 49 53 51 50 47 49 47 45 45 46 43 41 40 39 40 41 41 43 44 44 47
41 41 39 40 39 39 38 38 37 39 41 42 44 47 47 45 45 48 49 50 55 42 45 46 41 44 42 44 44 42 41 40 41 42 43 45 46 45
40 40 38 36 39 37 30 24 24 19 19 28 32 40 42 40 41 42 43 44 46 41 38 45 41 45 40 39 40 41 40 41 41 42 44 46 48 48
35 34 39 43 38 36 35 33 32 32 32 33 35 36 35 32 30 36 40 43 44 42 40 50 43 48 42 39 38 39 40 40 41 42 43 45 48 49
34 37 40 39 35 35 34 35 36 35 34 33 35 33 34 33 32 29 29 38 42 40 36 41 42 45 45 46 41 38 37 37 38 39 41 43 45 48
39 39 38 29 28 30 26 25 30 31 27 23 27 32 36 37 34 31 30 26 36 37 33 37 37 36 41 40 39 34 32 33 34 36 38 41 43 45
39 40 34 26 14 12 29 28 20 19 26 23 24 23 29 32 34 33 30 31 29 33 28 29 32 33 37 38 34 34 31 31 32 34 36 39 41 43
36 37 38 30 11 9 8 11 32 23 8 8 7 8 21 28 29 26 28 30 30 34 30 27 33 35 37 38 39 34 35 34 34 35 35 36 38 41
32 34 32 26 11 7 8 16 17 8 2 6 10 9 8 13 15 20 23 25 28 29 30 31 33 35 37 39 39 38 39 36 34 34 33 35 37 37
30 29 27 25 15 7 7 4 9 11 7 5 10 7 5 8 13 15 20 23 27 27 27 30 33 36 39 40 40 40 35 34 30 30 30 32 33 34
27 23 23 22 18 14 7 5 18 21 22 21 14 16 10 11 14 15 18 21 25 28 30 27 29 31 34 35 39 39 36 33 31 29 29 31 31 32
24 20 22 19 15 10 5 4 7 2 4 8 17 18 14 12 14 17 19 20 22 24 26 24 23 22 24 25 29 33 30 30 28 25 25 27 29 28
20 19 19 18 15 16 11 7 0 0 4 9 10 10 10 9 10 9 12 16 20 22 21 18 18 19 23 26 23 22 26 24 24 24 23 24 24 24
18 18 18 18 19 21 21 14 9 3 4 9 12 13 14 14 15 15 13 11 15 15 16 16 18 19 22 23 21 19 18 20 22 22 21 18 16 16
17 16 16 17 19 21 25 22 18 12 11 16 13 13 12 15 15 15 15 14 13 16 16 17 19 18 16 16 18 19 17 16 18 19 17 18 19 18
18 17 17 16 17 18 19 21 23 25 28 31 20 14 12 14 15 14 13 13 12 12 14 14 14 16 17 17 16 14 13 13 13 12 15 17 18 18
19 19 19 20 21 21 22 23 25 25 25 26 30 20 19 18 16 17 16 15 15 15 14 12 14 15 16 14 12 13 13 14 15 15 16 19 17 17
Wind_Direction
303 303 303 304 305 304 302 300 297 290 289 292 289 292 289 288 286 284 284 283 280 278 274 273 275 275 277 276 275 271 267 269 277 254 243 234 233 234
303 303 304 304 304 303 301 299 297 294 287 292 290 290 291 288 288 285 282 282 280 277 273 273 271 271 275 276 275 272 270 269 266 270 244 235 236 228
305 304 303 303 302 301 300 297 295 293 289 289 288 288 286 285 284 284 282 281 280 279 275 272 271 272 272 274 274 272 270 269 264 262 260 249 243 237
307 307 306 305 303 301 299 297 295 293 291 287 289 286 284 284 284 281 280 280 280 277 276 275 274 272 271 270 271 272 271 268 267 264 264 259 259 243
311 310 308 307 305 304 301 298 296 293 291 288 287 286 284 282 281 280 278 279 278 278 276 275 274 272 271 269 270 270 269 268 267 266 266 261 258 258
316 313 311 308 305 303 300 297 295 291 289 287 285 284 282 281 279 276 275 276 275 277 275 275 274 271 270 269 268 269 269 268 268 267 265 263 260 258
315 313 311 309 306 303 300 297 294 291 288 286 282 281 280 278 275 276 274 275 274 273 272 272 273 271 268 268 268 269 270 270 269 268 266 265 263 258
316 315 313 311 309 306 303 299 296 294 290 287 285 281 280 280 278 275 274 273 269 273 271 268 270 268 269 267 268 269 269 269 270 269 267 265 264 263
318 318 317 314 308 307 309 304 301 280 279 293 290 284 283 283 281 277 274 273 271 271 271 267 267 265 270 270 268 267 269 270 270 271 269 266 264 261
323 323 313 301 310 311 309 307 303 300 296 291 288 287 286 289 288 282 277 274 273 272 270 265 267 263 265 267 269 269 269 270 270 271 272 269 265 262
326 315 309 312 317 315 313 308 304 301 297 290 286 286 285 286 285 287 284 274 270 270 271 267 266 264 262 263 266 270 269 271 271 273 275 272 269 264
309 310 318 328 326 323 322 319 311 307 307 303 293 286 281 280 280 279 280 279 274 272 273 267 266 265 264 260 261 266 269 270 273 277 279 278 273 268
300 308 330 338 280 299 325 321 284 306 313 311 304 299 289 283 281 277 276 275 276 274 275 271 268 264 261 264 263 260 265 272 276 280 282 283 278 271
292 319 315 284 284 324 292 257 270 281 324 320 307 298 298 288 285 282 276 275 275 273 274 273 269 266 264 262 260 262 265 272 278 281 285 286 284 277
310 319 300 288 275 23 236 250 246 214 202 345 329 313 296 306 302 292 283 281 278 276 273 270 269 268 265 264 264 265 268 268 277 280 286 285 285 284
310 301 304 300 274 235 234 176 61 39 34 14 351 335 333 324 308 298 289 283 279 280 278 274 271 267 265 264 264 265 269 265 274 283 287 286 288 290
316 304 305 309 299 285 259 89 38 20 9 8 30 15 13 342 319 309 296 290 279 276 276 280 277 273 269 268 264 265 266 265 272 281 288 288 290 291
325 309 318 312 302 283 263 264 75 109 99 71 33 24 36 31 355 317 295 286 282 283 284 288 288 282 278 276 274 268 265 264 269 279 290 291 292 296
313 313 317 317 312 313 300 285 213 70 99 94 99 90 82 89 83 71 337 302 293 293 292 299 291 287 276 274 280 282 265 264 268 278 290 292 294 300
314 314 316 320 327 334 334 320 304 291 91 91 94 91 93 93 97 98 96 20 323 316 309 303 294 292 285 282 279 283 280 268 270 279 288 295 301 310
309 309 310 314 325 332 344 337 330 321 82 73 84 92 95 91 98 104 97 62 9 325 317 309 296 298 299 299 285 283 289 282 282 285 284 288 287 294
315 314 314 312 317 322 325 332 339 346 353 17 67 86 96 96 96 107 110 105 84 34 334 327 321 305 298 289 288 282 281 294 299 307 310 298 290 286
316 318 320 326 330 331 334 338 343 345 347 352 41 74 79 84 94 94 100 105 107 96 68 355 316 311 301 301 297 285 277 282 292 298 311 313 296 286